Latest Coastal Weather Observations for Melbourne

IDV60701

Issued at 3:55 pm EDT Sunday 23 November 2014 (issued every 10 minutes, with the page automatically refreshed every 10 minutes)

About coastal observations | Map of coastal stations | Coastal observations for VIC | Marine services | Other Formats
Station Details ID: 086071 Name: MELBOURNE REGIONAL OFFICE Lat: -37.81 Lon: 144.97 Height: 31.15 m
Data from the previous 72 hours. | See also: Recent months at Melbourne
Date/Time
EDT
Temp

°C
Wind Pressure Rain
since 9am
mm
Weather Cloud Vis
km
Sea
Height
m
Swell
Dir
 
Speed
knots
Gust
knots
hPa Trend Height
m
Period
s
Dir
23/03:30pm 24.5 - - - 1010.4 - 0.0 - - - - - - -
23/03:00pm 24.1 - - - 1010.2 - 0.0 - - - - - - -
23/02:30pm 23.7 - - - 1010.2 - 0.0 - - - - - - -
23/02:00pm 23.4 - - - 1010.3 - 0.0 - - - - - - -
23/01:30pm 22.8 - - - 1010.5 - 0.0 - - - - - - -
23/01:00pm 22.1 - - - 1010.8 - 0.0 - - - - - - -
23/12:30pm 21.8 - - - 1011.3 - 0.0 - - - - - - -
23/12:00pm 22.7 - - - 1011.2 - 0.0 - - - - - - -
23/11:30am 22.7 - - - 1011.7 - 0.0 - - - - - - -
23/11:00am 21.5 - - - 1011.8 - 0.0 - - - - - - -
23/10:30am 20.8 - - - 1012.2 - 0.0 - - - - - - -
23/10:00am 20.3 - - - 1012.4 - 0.0 - - - - - - -
23/09:30am 19.8 - - - 1012.6 - 0.0 - - - - - - -
23/09:00am 19.6 - - - 1012.5 - 0.0 - - - - - - -
23/08:30am 19.0 - - - 1012.4 - 0.0 - - - - - - -
23/08:00am 18.2 - - - 1012.2 - 0.0 - - - - - - -
23/07:30am 17.7 - - - 1011.8 - 0.0 - - - - - - -
23/07:00am 17.5 - - - 1011.7 - 0.0 - - - - - - -
23/06:30am 17.1 - - - 1011.5 - 0.0 - - - - - - -
23/06:00am 17.2 - - - 1011.1 - 0.0 - - - - - - -
23/05:30am 17.6 - - - 1011.3 - 0.0 - - - - - - -
23/05:00am 17.6 - - - 1011.0 - 0.0 - - - - - - -
23/04:30am 17.6 - - - 1011.1 - 0.0 - - - - - - -
23/04:00am 18.1 - - - 1010.6 - 0.0 - - - - - - -
23/03:30am 18.3 - - - 1010.3 - 0.0 - - - - - - -
23/03:00am 18.8 - - - 1009.9 - 0.0 - - - - - - -
23/02:30am 18.8 - - - 1009.8 - 0.0 - - - - - - -
23/02:00am 18.8 - - - 1009.7 - 0.0 - - - - - - -
23/01:30am 19.5 - - - 1009.7 - 0.0 - - - - - - -
23/01:00am 19.8 - - - 1009.8 - 0.0 - - - - - - -
23/12:30am 19.2 - - - 1009.6 - 0.0 - - - - - - -
23/12:00am 19.4 - - - 1009.3 - 0.0 - - - - - - -
 
Date/Time
EDT
Temp

°C
Wind Pressure Rain
since 9am
mm
Weather Cloud Vis
km
Sea
Height
m
Swell
Dir
 
Speed
knots
Gust
knots
hPa Trend Height
m
Period
s
Dir
22/11:30pm 20.1 - - - 1009.1 - 0.0 - - - - - - -
22/11:00pm 20.5 - - - 1009.0 - 0.0 - - - - - - -
22/10:30pm 21.6 - - - 1008.8 - 0.0 - - - - - - -
22/10:00pm 26.5 - - - 1007.6 - 0.0 - - - - - - -
22/09:30pm 27.5 - - - 1006.8 - 0.0 - - - - - - -
22/09:00pm 28.0 - - - 1006.5 - 0.0 - - - - - - -
22/08:30pm 28.8 - - - 1006.3 - 0.0 - - - - - - -
22/08:00pm 29.5 - - - 1005.6 - 0.0 - - - - - - -
22/07:30pm 29.9 - - - 1005.3 - 0.0 - - - - - - -
22/07:00pm 30.3 - - - 1005.1 - 0.0 - - - - - - -
22/06:30pm 30.1 - - - 1005.3 - 0.0 - - - - - - -
22/06:00pm 30.3 - - - 1005.4 - 0.0 - - - - - - -
22/05:30pm 30.8 - - - 1005.2 - 0.0 - - - - - - -
22/05:00pm 30.8 - - - 1005.5 - 0.0 - - - - - - -
22/04:30pm 30.7 - - - 1005.5 - 0.0 - - - - - - -
22/04:00pm 29.8 - - - 1005.9 - 0.0 - - - - - - -
22/03:30pm 28.8 - - - 1006.6 - 0.0 - - - - - - -
22/03:00pm 28.3 - - - 1007.8 - 0.0 - - - - - - -
22/02:30pm 27.1 - - - 1007.4 - 0.0 - - - - - - -
22/02:00pm 26.8 - - - 1007.8 - 0.0 - - - - - - -
22/01:30pm 26.2 - - - 1008.1 - 0.0 - - - - - - -
22/01:00pm 24.4 - - - 1008.5 - 0.0 - - - - - - -
22/12:30pm 23.2 - - - 1008.9 - 0.0 - - - - - - -
22/12:00pm 24.1 - - - 1011.3 - 0.0 - - - - - - -
22/11:30am 22.1 - - - 1010.4 - 0.0 - - - - - - -
22/11:00am 20.7 - - - 1010.5 - 0.0 - - - - - - -
22/10:30am 19.6 - - - 1010.3 - 0.0 - - - - - - -
22/10:00am 18.3 - - - 1010.5 - 0.0 - - - - - - -
22/09:30am 18.1 - - - 1011.1 - 0.0 - - - - - - -
22/09:00am 17.4 - - - 1010.9 - 0.2 - - - - - - -
22/08:30am 16.9 - - - 1011.3 - 0.2 - - - - - - -
22/08:00am 15.4 - - - 1010.9 - 0.2 - - - - - - -
22/07:30am 15.6 - - - 1010.6 - 0.2 - - - - - - -
22/07:00am 14.0 - - - 1010.6 - 0.2 - - - - - - -
22/06:30am 13.4 - - - 1009.9 - 0.2 - - - - - - -
22/06:00am 13.7 - - - 1009.9 - 0.2 - - - - - - -
22/05:30am 13.6 - - - 1010.0 - 0.2 - - - - - - -
22/05:00am 13.8 - - - 1010.2 - 0.2 - - - - - - -
22/04:30am 13.8 - - - 1009.8 - 0.2 - - - - - - -
22/04:00am 13.9 - - - 1009.8 - 0.2 - - - - - - -
22/03:30am 14.0 - - - 1009.7 - 0.2 - - - - - - -
22/03:00am 14.4 - - - 1010.0 - 0.2 - - - - - - -
22/02:30am 15.0 - - - 1010.5 - 0.2 - - - - - - -
22/02:00am 15.1 - - - 1010.8 - 0.2 - - - - - - -
22/01:30am 15.4 - - - 1011.3 - 0.2 - - - - - - -
22/01:00am 15.8 - - - 1011.3 - 0.2 - - - - - - -
22/12:30am 16.2 - - - 1012.0 - 0.2 - - - - - - -
22/12:00am 16.4 - - - 1012.2 - 0.2 - - - - - - -
 
Date/Time
EDT
Temp

°C
Wind Pressure Rain
since 9am
mm
Weather Cloud Vis
km
Sea
Height
m
Swell
Dir
 
Speed
knots
Gust
knots
hPa Trend Height
m
Period
s
Dir
21/11:30pm 16.8 - - - 1012.4 - 0.2 - - - - - - -
21/11:00pm 17.0 - - - 1012.6 - 0.2 - - - - - - -
21/10:30pm 17.6 - - - 1012.4 - 0.2 - - - - - - -
21/10:00pm 18.3 - - - 1012.2 - 0.2 - - - - - - -
21/09:30pm 18.4 - - - 1012.2 - 0.2 - - - - - - -
21/09:00pm 18.8 - - - 1011.9 - 0.2 - - - - - - -
21/08:30pm 18.7 - - - 1011.7 - 0.2 - - - - - - -
21/08:00pm 18.8 - - - 1011.4 - 0.2 - - - - - - -
21/07:30pm 19.1 - - - 1011.1 - 0.2 - - - - - - -
21/07:00pm 19.8 - - - 1010.6 - 0.2 - - - - - - -
21/06:30pm 20.7 - - - 1010.4 - 0.2 - - - - - - -
21/06:00pm 22.7 - - - 1010.3 - 0.2 - - - - - - -
21/05:30pm 22.2 - - - 1010.2 - 0.2 - - - - - - -
21/05:00pm 22.4 - - - 1010.2 - 0.2 - - - - - - -
21/04:30pm 22.3 - - - 1010.4 - 0.2 - - - - - - -
21/04:00pm 23.0 - - - 1010.6 - 0.2 - - - - - - -
21/03:30pm 22.9 - - - 1010.7 - 0.2 - - - - - - -
21/03:00pm 22.2 - - - 1010.8 R 0.2 Fine Mostly clear 30 - - - -
21/02:30pm 21.6 - - - 1011.0 - 0.2 - - - - - - -
21/02:00pm 21.7 - - - 1011.3 - 0.2 - - - - - - -
21/01:30pm 21.5 - - - 1011.4 - 0.2 - - - - - - -
21/01:00pm 20.3 - - - 1011.5 - 0.2 - - - - - - -
21/12:30pm 20.9 - - - 1011.4 - 0.2 - - - - - - -
21/12:00pm 20.3 - - - 1011.5 R 0.2 Fine Partly cloudy 30 - - - -
21/11:30am 18.8 - - - 1011.8 - 0.0 - - - - - - -
21/11:00am 17.9 - - - 1011.7 - 0.0 - - - - - - -
21/10:30am 18.5 - - - 1011.1 - 0.0 - - - - - - -
21/10:00am 17.3 - - - 1011.0 - 0.0 - - - - - - -
21/09:30am 17.7 - - - 1011.1 - 0.0 - - - - - - -
21/09:00am 17.4 - - - 1011.0 - 0.6 - - - - - - -
21/08:30am 17.0 - - - 1010.9 - 0.6 - - - - - - -
21/08:00am 17.3 - - - 1010.0 - 0.6 - - - - - - -
21/07:30am 17.3 - - - 1009.2 - 0.6 - - - - - - -
21/07:00am 17.5 - - - 1008.8 - 0.6 - - - - - - -
21/06:30am 17.2 - - - 1008.3 - 0.6 - - - - - - -
21/06:00am 17.1 - - - 1008.2 - 0.6 - - - - - - -
21/05:30am 16.9 - - - 1007.9 - 0.6 - - - - - - -
21/05:00am 17.0 - - - 1007.4 - 0.6 - - - - - - -
21/04:30am 17.0 - - - 1006.8 - 0.6 - - - - - - -
21/04:00am 17.5 - - - 1006.3 - 0.6 - - - - - - -
21/03:30am 17.8 - - - 1005.9 - 0.6 - - - - - - -
21/03:00am 18.7 - - - 1005.5 - 0.6 - - - - - - -
21/02:30am 19.7 - - - 1005.0 - 0.6 - - - - - - -
21/02:00am 18.5 - - - 1005.1 - 0.6 - - - - - - -
21/01:30am 19.6 - - - 1005.1 - 0.6 - - - - - - -
21/01:00am 19.8 - - - 1005.3 - 0.6 - - - - - - -
21/12:30am 19.8 - - - 1005.3 - 0.6 - - - - - - -
21/12:00am 20.7 - - - 1005.4 - 0.6 - - - - - - -
 
Date/Time
EDT
Temp

°C
Wind Pressure Rain
since 9am
mm
Weather Cloud Vis
km
Sea
Height
m
Swell
Dir
 
Speed
knots
Gust
knots
hPa Trend Height
m
Period
s
Dir
20/11:30pm 20.9 - - - 1005.6 - 0.6 - - - - - - -
20/11:00pm 21.2 - - - 1005.7 - 0.6 - - - - - - -
20/10:30pm 21.3 - - - 1005.9 - 0.6 - - - - - - -
20/10:00pm 21.2 - - - 1006.4 - 0.6 - - - - - - -
20/09:30pm 21.4 - - - 1006.2 - 0.6 - - - - - - -
20/09:00pm 21.6 - - - 1006.3 - 0.4 - - - - - - -
20/08:30pm 22.0 - - - 1006.5 - 0.2 - - - - - - -
20/08:00pm 21.4 - - - 1006.4 - 0.2 - - - - - - -
20/07:30pm 21.2 - - - 1006.9 - 0.0 - - - - - - -
20/07:00pm 21.4 - - - 1007.0 - 0.0 - - - - - - -
20/06:30pm 22.5 - - - 1006.8 - 0.0 - - - - - - -
20/06:00pm 23.5 - - - 1006.5 - 0.0 - - - - - - -
20/05:30pm 23.5 - - - 1006.4 - 0.0 - - - - - - -
20/05:00pm 24.0 - - - 1006.3 - 0.0 - - - - - - -
20/04:30pm 24.9 - - - 1006.1 - 0.0 - - - - - - -
20/04:00pm 26.3 - - - 1006.1 - 0.0 - - - - - - -

Other Formats:

Comma delimited format used in spreadsheet applications
http://www.bom.gov.au/fwo/IDV60701/IDV60701.94868.axf

JavaScript Object Notation format (JSON) in row-major order
http://www.bom.gov.au/fwo/IDV60701/IDV60701.94868.json